Retour au catalogue

STARLINK-4722

ActifCommunicationsVLEO
NORAD 53775·PAYLOAD·🇺🇸 United States

Lancé Sep 11, 2022 depuis Cape Canaveral Space Force Station

Loading…

Prochains Passages (prochaines 24 heures)

TLE

FraisSource: CelesTrak SupGP

Époque: Sep 14, 2026, 21:36 UTC

1 53775C 22111C   26257.90048611 -.00040079  00000+0 -12891-2 0  2576
2 53775  53.1587 132.7114 0001405  86.0566 257.3647 15.31716091    17

Suivez STARLINK-4722 en temps réel avec AllMySat

Download on the App Store